Weather in Gulbene

Latvia     57°10′12″N   26°44′52″E
В апреле 2022 года жителям России запретили посещать сайт meteo.paraplan.net по решению Генеральной прокуратуры. Аудитория сайта уменьшилась в 10 раз. Владельцы сайта не видят смысла в поддержке погодного сервера в таких условиях. Сайт будет закрыт в октябре.
temp.,
°C
wind,
m/s
gust,
m/s
humid.,
%
clouds,
%
prec.,
mm/h
press.,
hPa
HPBL,
m
25 september, sun
sun2500:00+7nnw277887 0.0 1013309
03:00+5nw389645 0.0 1013166
06:00+4nw399796 0.0 1013217
09:00+8nw397456 0.0 1012331
12:00+12nnw575430 0.0 10111471
15:00+13nw4749100 0.0 10091782
18:00+10nnw2663100 0.0 1009410
21:00+9wnw2473100 0.0 1009118
26 september, mon
mon2600:00+5wnw22918 0.0 100936
03:00+4nw11895 0.0 100912
06:00+4s008939 0.0 100910
09:00+7sse127374 0.0 1009123
12:00+10sse2367100 0.0 1009316
15:00+12sse2363100 0.0 1009480
18:00+11ese23715 0.0 100970
21:00+7ese25875 0.0 100984
27 september, tue
tue2700:00+6ese26885 0.0 1010105
03:00+5ese25935 0.0 101098
06:00+5ese37965 0.0 1010131
09:00+7ese37830 0.0 1009208
12:00+13ese36572 0.0 1009748
15:00+15ese454816 0.0 10081471
18:00+12e376033 0.0 1008363
21:00+8e41177100 0.0 1008303
28 september, wed
wed2800:00+7e3108592 0.0 1008298
03:00+5ene399694 0.0 1007236
06:00+6ene398897 0.0 1006315
09:00+7e31084100 0.0 1005340
12:00+10e477198 0.0 1004492
15:00+11e4770100 0.0 1003729
18:00+11ene387099 0.1 1003617
21:00+8e3880100 0.1 1003468
29 september, thu
thu2900:00+6e259699 0.0 1004175
03:00+7ese2590100 0.0 1003278
06:00+7ese2591100 0.0 1004246
09:00+8se379095 0.1 1004374
12:00+9sse4988100 0.3 1004632
15:00+12ssw577157 0.4 10051071
18:00+11s4772100 0.1 1007981
21:00+9sse3108922 0.2 1009395